Redmond, OR

4:25 AM PST on November 18, 2017 (GMT -0800)
Roberts Field Airport

Weather History for KRDM - February, 2012

Change the Weather History Date:

Monday, February 20, 2012

  Actual Average Record
Temperature  
Mean Temperature 38 °F 36 °F  
Max Temperature 50 °F 48 °F 73 °F (1995)
Min Temperature 26 °F 24 °F 2 °F (1993)
Degree Days  
Heating Degree Days 27 29  
Month to date heating degree days 630 605  
Since 1 July heating degree days 4252 4445  
Cooling Degree Days 0 0  
Month to date cooling degree days 0 0  
Year to date cooling degree days 0 0  
Moisture  
Dew Point 30 °F    
Average Humidity 67    
Maximum Humidity 92    
Minimum Humidity 42    
Precipitation  
Precipitation T in 0.02 in 0.49 in (1951)
Month to date precipitation 0.37 0.47  
Year to date precipitation 1.88 1.44  
Sea Level Pressure  
Sea Level Pressure 29.98 in    
Wind  
Wind Speed 4 mph (East)    
Max Wind Speed 22 mph    
Max Gust Speed 28 mph    
Visibility 10 miles    
Events      
T = Trace of Precipitation, MM = Missing Value Source: NWS Daily Summary

Daily Weather History Graph

Daily Weather History Graph

Search for Another Location

Airport or City:

Trip Planner

Search our weather history database for the weather conditions in past years. The results will help you decide how hot, cold, wet, or windy it might be!

Date:

Astronomy

Feb. 20, 2012 Rise Set
Actual Time 6:57 AM PST 5:40 PM PST
Civil Twilight 6:27 AM PST 6:09 PM PST
Nautical Twilight 5:53 AM PST 6:43 PM PST
Astronomical Twilight 5:20 AM PST 7:17 PM PST
Moon 5:58 AM PST (2/20) 4:50 PM PST (2/20)
Length of Visible Light 11h 42m
Length of Day
10h 43m
Waning Crescent, 1% of the Moon is Illuminated
Feb 20
Waning Crescent
Feb 21
New
Feb 29
First Quarter
Mar 8
Full
Mar 14
Last Quarter

Hourly Weather History & Observations

Time (PST) Temp. Windchill Dew Point Humidity Pressure Visibility Wind Dir Wind Speed Gust Speed Precip Events Conditions
12:56 AM 28.9 °F 25.2 °F 26.1 °F 89% 29.94 in 10.0 mi SSE 3.5 mph - N/A   Partly Cloudy
1:56 AM 28.0 °F 24.2 °F 26.1 °F 92% 29.93 in 10.0 mi SE 3.5 mph - N/A   Clear
2:56 AM 30.0 °F - 27.0 °F 88% 29.90 in 10.0 mi Calm Calm - N/A   Overcast
3:56 AM 27.0 °F 20.5 °F 25.0 °F 92% 29.86 in 10.0 mi SE 5.8 mph - N/A   Overcast
4:56 AM 30.9 °F 26.2 °F 26.1 °F 82% 29.88 in 10.0 mi East 4.6 mph - N/A   Mostly Cloudy
5:56 AM 33.8 °F 30.8 °F 26.6 °F 75% 29.86 in 10.0 mi ESE 3.5 mph - N/A   Overcast
6:56 AM 35.1 °F 32.2 °F 28.0 °F 76% 29.92 in 10.0 mi ESE 3.5 mph - N/A   Overcast
7:56 AM 35.1 °F 31.0 °F 28.0 °F 76% 29.94 in 10.0 mi NE 4.6 mph - N/A   Overcast
8:56 AM 37.0 °F 34.5 °F 28.9 °F 73% 29.96 in 10.0 mi East 3.5 mph - N/A   Overcast
9:56 AM 44.1 °F 40.8 °F 30.9 °F 60% 29.95 in 10.0 mi NE 5.8 mph - N/A   Partly Cloudy
10:56 AM 46.0 °F - 30.9 °F 56% 29.95 in 10.0 mi Calm Calm - N/A   Clear
11:56 AM 48.0 °F - 30.0 °F 50% 29.94 in 10.0 mi Variable 3.5 mph - N/A   Mostly Cloudy
12:56 PM 50.0 °F - 28.9 °F 44% 29.94 in 10.0 mi Calm Calm - N/A   Mostly Cloudy
1:56 PM 48.9 °F - 27.0 °F 43% 29.98 in 10.0 mi WNW 20.7 mph 27.6 mph N/A   Overcast
2:56 PM 46.9 °F - 30.9 °F 54% 30.01 in 10.0 mi NW 6.9 mph - N/A   Overcast
3:56 PM 46.0 °F 41.0 °F 32.0 °F 58% 30.03 in 10.0 mi NW 10.4 mph - N/A   Overcast
4:56 PM 45.0 °F 41.2 °F 33.1 °F 63% 30.04 in 10.0 mi SW 6.9 mph - N/A   Overcast
5:56 PM 43.0 °F - 33.1 °F 68% 30.05 in 10.0 mi Calm Calm - N/A   Overcast
6:56 PM 42.1 °F 39.2 °F 34.0 °F 73% 30.05 in 10.0 mi ESE 4.6 mph - N/A   Overcast
7:56 PM 42.1 °F 40.2 °F 33.1 °F 70% 30.06 in 10.0 mi ENE 3.5 mph - N/A   Overcast
8:56 PM 39.9 °F 37.8 °F 35.1 °F 83% 30.06 in 10.0 mi ENE 3.5 mph - 0.00 in   Overcast
9:56 PM 39.9 °F - 35.1 °F 83% 30.07 in 10.0 mi Calm Calm - N/A   Overcast
10:56 PM 39.9 °F - 35.1 °F 83% 30.09 in 10.0 mi Calm Calm - N/A   Overcast
11:56 PM 39.0 °F 35.7 °F 34.0 °F 82% 30.09 in 10.0 mi North 4.6 mph - N/A   Overcast